AMR (WAAS/PRN 133)

Last updated on Sat Nov 18 2017 00:19:16 GMT+0000 (Coordinated Universal Time)

1 33278U 08039A 17321.59520894 -.00000143 00000-0 00000+0 0 9997 2 33278 3.0274 2.9660 0002985 238.2491 291.9390 1.00271760 33842
UTC large
Height (km)
Speed (km/s)
/
Latitude / Longitude
Inclination (degrees)
Orbital Period (minutes)
Azimuth
Elevation
Range (km)
Doppler Factor

Next 0 passes for location: London (51.5072 / 0.1276)

Sorry there are no passes over London.